TimeEDT,TemperatureF,Dew PointF,Humidity,Sea Level PressureIn,VisibilityMPH,Wind Direction,Wind SpeedMPH,Gust SpeedMPH,PrecipitationIn,Events,Conditions,WindDirDegrees,DateUTC
12:51 AM,48.9,43.0,80,30.24,10.0,ESE,5.8,-,N/A,,Partly Cloudy,120,2013-05-06 04:51:00
1:51 AM,48.9,43.0,80,30.23,10.0,ESE,3.5,-,N/A,,Partly Cloudy,110,2013-05-06 05:51:00
2:26 AM,48.2,42.8,82,30.22,10.0,Calm,Calm,-,N/A,,Mostly Cloudy,0,2013-05-06 06:26:00
2:51 AM,48.0,44.1,86,30.22,10.0,Variable,4.6,-,N/A,,Mostly Cloudy,0,2013-05-06 06:51:00
3:51 AM,48.9,44.1,83,30.22,10.0,Calm,Calm,-,N/A,,Overcast,0,2013-05-06 07:51:00
4:51 AM,50.0,43.0,77,30.22,10.0,North,4.6,-,N/A,,Overcast,360,2013-05-06 08:51:00
5:51 AM,50.0,44.1,80,30.23,9.0,NNE,3.5,-,N/A,,Overcast,30,2013-05-06 09:51:00
6:51 AM,51.1,45.0,80,30.24,8.0,North,5.8,-,N/A,,Overcast,10,2013-05-06 10:51:00
7:51 AM,52.0,44.1,74,30.26,9.0,East,4.6,-,N/A,,Overcast,90,2013-05-06 11:51:00
8:51 AM,54.0,45.0,72,30.27,7.0,Variable,5.8,-,N/A,,Overcast,0,2013-05-06 12:51:00
9:51 AM,55.0,45.0,69,30.27,9.0,East,6.9,-,N/A,,Overcast,80,2013-05-06 13:51:00
10:51 AM,57.0,45.0,64,30.27,10.0,ESE,5.8,-,N/A,,Overcast,110,2013-05-06 14:51:00
11:51 AM,59.0,46.0,62,30.25,10.0,Calm,Calm,-,N/A,,Overcast,0,2013-05-06 15:51:00
12:51 PM,63.0,46.9,56,30.23,10.0,Calm,Calm,-,N/A,,Mostly Cloudy,0,2013-05-06 16:51:00
1:51 PM,64.9,48.0,54,30.21,10.0,ENE,3.5,-,N/A,,Mostly Cloudy,60,2013-05-06 17:51:00
2:51 PM,63.0,48.9,60,30.19,10.0,East,6.9,-,N/A,,Mostly Cloudy,90,2013-05-06 18:51:00
3:51 PM,64.0,48.0,56,30.17,10.0,SSE,9.2,-,N/A,,Mostly Cloudy,150,2013-05-06 19:51:00
4:51 PM,62.1,48.9,62,30.17,10.0,SSE,6.9,-,N/A,,Mostly Cloudy,150,2013-05-06 20:51:00
5:25 PM,62.6,48.2,59,30.17,10.0,SE,9.2,-,N/A,,Mostly Cloudy,140,2013-05-06 21:25:00
5:51 PM,61.0,48.0,62,30.17,10.0,South,6.9,-,N/A,,Scattered Clouds,170,2013-05-06 21:51:00
6:51 PM,59.0,48.0,67,30.17,10.0,SE,5.8,-,N/A,,Mostly Cloudy,140,2013-05-06 22:51:00
7:51 PM,55.9,48.0,75,30.17,10.0,South,5.8,-,N/A,,Mostly Cloudy,170,2013-05-06 23:51:00
8:51 PM,55.0,48.0,77,30.18,10.0,SSE,3.5,-,N/A,,Scattered Clouds,160,2013-05-07 00:51:00
9:51 PM,55.0,48.0,77,30.19,10.0,SE,3.5,-,N/A,,Scattered Clouds,140,2013-05-07 01:51:00
10:51 PM,55.0,46.9,74,30.18,10.0,Calm,Calm,-,N/A,,Partly Cloudy,0,2013-05-07 02:51:00
11:51 PM,55.0,46.9,74,30.17,10.0,Calm,Calm,-,N/A,,Partly Cloudy,0,2013-05-07 03:51:00